Location: Lake Arresoe
(56.0000°N, 12.5000°E)
Time: 12:32:03
(UTC+02:00)

Cosmos 1674 - Visible Passes

Search period start: 27 June 2017 00:00
Search period end: 07 July 2017 00:00
Orbit: 497 x 524 km, 82.5° (Epoch: 26 June)

Date Brightness Start Highest point End Pass type
(mag) Time Alt. Az. Time Alt. Az. Time Alt. Az.
30 Jun 6.3 23:33:12 10° WNW 23:33:33 10° NW 23:33:54 10° NW visible
01 Jul 5.9 23:15:22 10° W 23:16:49 12° NW 23:18:16 10° NNW visible
02 Jul 5.8 22:58:06 10° W 23:00:05 14° WNW 23:02:05 10° NNW visible
